Location: Unspecified
(0.0000°N, 0.0000°E)
Time: 18:59:06
(UTC+00:00)

Explorer 7 - Pass Details

Date: 26 November 2019
Orbit: 485 x 680 km, 50.3° (Epoch: 08 December)

Event Time Altitude Azimuth Distance (km) Brightness Sun altitude
Rises 06:29:10 0° 316° (NW) 2,588 9.7 9.8°
Reaches altitude 10° 06:31:24 10° 312° (NW) 1,686 8.8 10.3°
Maximum altitude 06:35:07 55° 234° (SW) 590 7.0 11.2°
Drops below altitude 10° 06:38:47 10° 155° (SSE) 1,660 10.1 12.0°
Sets 06:40:58 0° 150° (SSE) 2,543 11.1 12.6°
